Temperature
4 4 4 4 4 4 4 4 4 4 4 4 4 4 4 4 4 4 4 4 4 4 4 4 4 4 4 4 4 4 4 4 4 4 5 4 4 5 5 4 4 4 4
4 4 4 4 4 4 4 4 4 4 4 4 4 4 4 4 4 4 4 4 4 4 4 4 4 4 4 4 4 4 4 4 4 4 4 4 4 4 4 4 4 4 4
3 3 3 3 3 3 3 3 3 3 3 3 3 3 3 3 3 3 3 3 3 3 3 3 3 3 3 3 3 3 3 3 3 3 3 3 3 3 3 3 3 3 3
3 3 3 2 2 3 3 3 3 3 3 3 3 3 3 3 3 3 3 3 3 3 3 3 3 3 3 3 3 3 3 3 3 3 3 3 3 3 3 3 3 3 3
2 2 2 2 2 2 2 2 2 2 2 2 2 2 2 2 2 2 2 2 2 2 2 2 3 3 3 2 2 3 2 2 2 2 2 2 2 2 2 3 3 3 3
1 1 1 1 1 1 1 1 1 1 1 1 2 2 2 2 2 2 2 2 2 2 2 2 2 2 2 2 2 2 2 2 2 2 2 2 2 2 2 2 2 2 2
1 1 1 1 1 1 1 1 1 1 1 1 1 1 1 1 1 1 1 1 1 1 2 2 2 2 2 2 2 2 1 1 1 1 1 1 1 1 1 1 1 1 1
0 0 0 0 0 0 0 0 0 0 0 0 1 1 1 1 0 1 1 1 1 1 1 1 1 1 1 1 1 1 1 1 1 1 1 1 1 1 0 0 0 0 0
-1 -0 -0 -0 -0 -0 -0 -0 -0 -0 -0 -0 -0 0 0 0 0 0 0 0 0 0 0 0 0 1 1 0 0 0 0 0 0 0 0 0 -0 -0 -0 -0 -0 -0 -0
-1 -1 -1 -1 -1 -1 -1 -1 -1 -1 -1 -1 -1 -1 -0 -0 -0 -0 -0 -0 -0 -0 -0 -0 -0 -0 -0 -0 -0 -0 -0 -0 -0 -0 -0 -0 -1 -1 -1 -1 -1 -1 -1
-2 -2 -1 -1 -2 -2 -2 -1 -1 -1 -1 -1 -1 -1 -1 -1 -1 -1 -1 -1 -1 -1 -1 -1 -1 -1 -1 -1 -1 -1 -1 -1 -1 -1 -1 -1 -1 -1 -1 -2 -2 -2 -2
-2 -2 -2 -2 -2 -2 -2 -2 -2 -2 -2 -2 -2 -2 -2 -2 -2 -2 -2 -2 -2 -2 -2 -2 -2 -1 -1 -1 -1 -1 -1 -2 -2 -2 -2 -2 -2 -2 -2 -2 -2 -2 -2
-3 -3 -2 -2 -2 -3 -3 -3 -3 -3 -3 -3 -3 -3 -3 -3 -2 -2 -2 -2 -2 -2 -2 -2 -2 -2 -2 -2 -2 -2 -2 -2 -2 -2 -2 -3 -2 -2 -3 -3 -3 -3 -3
-3 -3 -3 -3 -3 -3 -3 -3 -3 -3 -3 -3 -3 -3 -3 -3 -3 -3 -3 -3 -3 -3 -2 -2 -2 -2 -2 -2 -2 -2 -3 -3 -3 -3 -3 -3 -3 -3 -3 -3 -3 -3 -3
-4 -4 -4 -4 -4 -4 -4 -4 -4 -4 -4 -4 -4 -4 -4 -4 -3 -3 -3 -3 -3 -3 -3 -3 -3 -3 -3 -3 -3 -3 -3 -3 -3 -3 -4 -4 -4 -4 -4 -4 -4 -4 -4
-5 -4 -4 -4 -4 -4 -5 -4 -4 -4 -4 -4 -5 -5 -4 -4 -4 -4 -3 -3 -3 -3 -4 -4 -4 -4 -4 -4 -4 -4 -4 -4 -4 -4 -4 -4 -4 -4 -4 -4 -5 -5 -5
-5 -5 -5 -5 -5 -5 -5 -5 -5 -5 -5 -5 -5 -5 -5 -5 -4 -4 -4 -4 -4 -4 -4 -4 -4 -4 -4 -4 -4 -4 -4 -4 -5 -5 -5 -5 -5 -5 -5 -5 -5 -5 -5
-6 -6 -6 -6 -6 -6 -6 -6 -6 -6 -5 -5 -5 -5 -5 -5 -5 -5 -4 -4 -4 -4 -5 -5 -5 -5 -5 -5 -5 -5 -5 -5 -5 -5 -5 -5 -5 -5 -5 -6 -6 -6 -6
-7 -7 -7 -7 -7 -7 -7 -6 -6 -6 -6 -6 -6 -6 -6 -6 -5 -5 -5 -5 -5 -5 -5 -5 -5 -6 -6 -5 -5 -5 -5 -5 -5 -6 -6 -6 -6 -6 -6 -6 -6 -6 -7
-7 -7 -7 -7 -7 -7 -7 -7 -7 -7 -7 -7 -7 -7 -6 -6 -6 -6 -6 -6 -6 -6 -6 -6 -6 -6 -6 -6 -6 -6 -6 -6 -6 -6 -6 -6 -6 -6 -6 -7 -7 -7 -7
-8 -8 -8 -7 -7 -8 -8 -8 -8 -8 -7 -7 -7 -7 -7 -7 -7 -7 -7 -6 -6 -6 -6 -7 -7 -6 -6 -6 -6 -6 -6 -6 -6 -6 -6 -6 -7 -7 -7 -7 -7 -7 -7
-8 -8 -8 -8 -8 -8 -8 -8 -8 -8 -8 -8 -8 -8 -8 -8 -7 -7 -7 -7 -7 -7 -7 -7 -7 -7 -7 -7 -7 -7 -7 -7 -7 -7 -7 -7 -7 -7 -7 -7 -8 -8 -8
-9 -9 -9 -9 -9 -9 -9 -9 -9 -9 -9 -9 -8 -8 -8 -8 -8 -8 -8 -8 -7 -7 -8 -8 -7 -7 -7 -7 -7 -7 -7 -7 -7 -7 -7 -7 -7 -8 -8 -8 -8 -8 -8
-9 -9 -9 -9 -9 -9 -9 -9 -9 -9 -9 -9 -9 -9 -9 -9 -9 -8 -8 -8 -8 -8 -8 -8 -8 -8 -8 -8 -8 -8 -8 -8 -8 -8 -8 -8 -8 -8 -8 -8 -8 -8 -8
-10 -10 -9 -9 -10 -10 -10 -9 -10 -10 -9 -9 -9 -9 -9 -9 -9 -9 -9 -9 -9 -8 -8 -8 -8 -8 -8 -8 -8 -8 -8 -8 -8 -8 -8 -8 -8 -8 -8 -8 -8 -9 -9
-10 -10 -10 -10 -10 -10 -10 -10 -10 -10 -10 -10 -10 -10 -10 -10 -9 -9 -9 -9 -9 -9 -9 -9 -9 -9 -8 -8 -8 -8 -8 -8 -8 -8 -8 -8 -8 -8 -8 -9 -9 -9 -9
Wind_Speed
3 3 3 2 2 2 1 1 0 1 1 1 1 1 1 1 0 1 1 2 2 2 2 2 2 2 2 2 2 2 2 2 3 3 2 1 1 2 3 5 6 7 8
3 3 3 2 2 2 1 1 1 1 1 1 1 1 1 1 0 1 2 2 2 2 2 2 2 2 3 2 2 3 2 2 3 3 2 2 2 2 2 3 4 5 7
3 3 3 3 2 1 1 1 1 1 1 1 1 1 1 0 0 1 2 2 3 3 3 3 3 3 3 3 3 3 3 2 2 3 3 1 1 1 1 2 2 3 5
3 3 3 2 2 1 1 1 0 0 0 1 0 0 0 0 0 1 1 2 2 2 2 3 3 3 4 4 3 4 3 3 2 2 2 1 1 1 0 1 2 2 3
2 3 3 2 2 2 2 1 1 1 1 0 0 0 0 0 0 1 1 1 2 2 2 2 2 3 3 3 3 3 3 3 2 2 2 1 2 1 2 2 3 2 3
2 2 2 3 2 1 1 1 1 1 1 1 0 0 1 1 1 1 1 1 1 2 2 2 2 3 3 4 4 3 4 4 4 3 3 3 4 3 2 2 2 1 3
2 2 2 2 2 2 1 2 1 1 1 1 1 1 1 1 1 1 1 1 1 2 2 2 2 2 2 2 2 2 3 4 5 5 5 5 4 4 3 3 3 3 4
3 2 2 2 2 2 1 1 1 1 1 1 1 1 1 2 2 1 1 1 0 1 1 2 2 2 2 2 2 1 2 2 4 4 4 4 4 4 4 4 4 2 1
3 3 3 2 2 3 2 1 1 1 1 1 1 1 1 2 3 2 1 0 0 1 1 1 2 2 2 2 2 2 2 2 3 3 3 3 3 3 3 2 1 1 3
3 3 3 2 2 2 2 2 1 1 1 2 2 2 2 2 3 2 1 0 1 1 2 2 2 2 2 3 3 3 3 3 2 2 2 2 2 2 3 3 3 3 2
3 3 3 3 2 2 2 2 1 1 1 1 2 2 2 2 3 3 2 1 1 1 2 2 2 3 3 3 3 3 4 3 2 1 1 1 1 1 2 2 3 3 3
3 3 3 3 2 2 2 2 1 1 1 1 1 2 2 2 3 3 3 2 2 2 2 3 3 4 4 4 3 3 3 2 1 1 1 2 2 2 2 2 3 3 3
3 3 3 3 3 2 2 2 1 1 1 1 1 2 3 2 3 4 4 4 3 3 3 3 4 4 3 3 3 3 2 1 1 1 2 3 3 3 2 1 1 1 2
3 3 3 2 3 3 2 2 2 1 1 1 2 2 2 3 3 2 3 3 4 3 3 3 3 3 2 2 2 2 2 2 2 3 3 2 1 1 2 1 2 1 1
3 3 3 3 2 3 3 2 3 2 2 2 2 2 3 3 4 5 4 3 3 2 2 1 1 1 1 1 1 1 1 1 2 2 2 1 2 2 2 2 2 2 2
3 3 3 3 2 2 3 4 5 4 5 4 4 3 3 5 6 6 6 5 4 2 1 1 1 1 2 2 2 2 2 2 2 2 2 2 2 2 2 2 2 3 3
3 3 2 3 2 3 3 3 3 5 6 6 6 5 5 6 6 6 6 4 3 1 1 1 1 2 2 2 2 2 3 2 2 2 2 3 3 3 3 3 3 3 3
3 3 3 2 2 3 3 3 3 3 4 4 6 7 7 6 6 6 6 3 2 1 1 1 2 2 2 3 3 3 3 2 2 2 2 3 3 3 3 3 3 3 3
3 3 3 3 3 3 3 3 3 3 3 4 4 5 7 7 6 6 5 2 2 2 2 2 2 3 3 3 3 3 3 3 3 3 3 3 3 3 3 3 3 4 3
3 5 5 3 3 3 3 3 3 3 3 4 4 4 5 4 4 4 3 3 2 3 3 3 3 3 3 3 3 3 3 3 3 3 3 3 3 3 4 4 3 3 3
3 4 5 4 3 3 3 3 3 3 3 4 4 5 6 3 3 4 3 3 3 3 3 3 3 3 3 3 3 3 3 3 3 3 3 3 3 3 3 3 3 3 2
2 3 3 3 3 3 3 3 3 3 3 4 4 5 7 4 3 3 3 3 3 3 4 3 3 3 3 3 3 3 3 4 3 3 3 3 3 3 3 3 3 3 3
2 3 3 3 3 4 4 3 3 3 3 4 4 5 5 4 4 4 4 4 4 4 5 4 4 4 5 5 5 4 4 4 4 4 4 3 3 3 3 3 4 4 4
2 3 3 3 3 3 3 3 3 4 4 4 4 4 4 4 4 5 4 4 5 5 6 5 5 6 7 7 6 5 6 6 6 6 5 4 4 3 3 3 4 4 4
2 2 3 3 3 3 3 3 3 4 4 4 4 4 5 5 5 5 5 5 5 6 7 7 6 7 8 8 7 7 7 7 6 5 4 3 3 4 4 4 4 4 4
2 2 2 3 3 3 3 3 4 4 4 4 4 4 5 5 5 5 5 5 5 6 7 7 8 9 9 8 8 8 7 6 5 5 4 3 3 3 3 3 4 4 4
Wind_Direction
68 79 80 77 74 78 88 91 103 77 79 93 113 97 85 66 111 162 191 194 200 211 205 199 210 200 193 196 191 194 205 202 235 270 279 289 253 254 260 248 251 252 252
56 71 73 73 75 74 64 47 58 60 59 83 99 102 82 49 44 195 209 210 211 222 224 211 224 210 207 204 201 207 214 214 219 250 267 264 261 261 250 250 256 254 252
55 63 62 56 59 54 28 13 47 63 56 52 62 89 93 47 303 257 222 218 216 224 223 221 225 210 219 217 211 213 217 220 219 228 253 266 278 304 302 287 271 266 264
46 58 58 47 44 39 20 9 20 90 111 78 70 99 154 199 245 253 240 233 226 231 231 226 224 218 222 217 217 217 210 208 211 224 241 258 267 281 268 271 286 283 281
47 49 39 29 34 39 35 26 22 27 16 10 341 328 311 239 267 288 240 235 234 235 242 240 235 231 227 218 217 212 205 212 215 226 240 256 251 249 241 231 245 280 283
50 38 30 29 28 32 29 36 34 24 12 25 275 265 288 305 323 307 276 237 239 232 243 255 254 243 240 230 222 212 204 211 218 223 234 240 245 238 230 222 214 255 273
42 35 29 25 18 7 15 33 27 9 356 353 328 323 300 298 307 262 255 249 244 252 241 248 266 270 248 226 224 228 230 228 220 218 226 236 238 225 206 217 221 232 244
31 25 18 15 5 359 9 9 343 343 352 341 339 324 313 319 342 322 303 264 254 285 251 231 233 248 240 209 202 211 239 252 244 233 231 239 237 223 210 217 223 233 284
11 358 350 350 346 348 341 326 324 347 351 332 317 340 334 326 350 360 356 269 302 305 303 284 243 237 245 210 192 211 251 271 274 251 252 260 253 233 206 186 190 214 256
345 338 339 340 332 323 317 308 317 321 325 338 346 349 334 319 337 351 357 242 293 298 308 307 299 283 268 233 209 215 244 262 266 289 301 305 291 249 218 211 209 219 239
345 345 347 343 330 316 320 317 321 333 356 349 339 335 331 326 331 337 332 287 255 272 290 294 291 290 280 260 237 229 241 245 239 235 273 297 313 288 257 241 224 216 226
353 352 349 343 336 339 346 333 333 344 351 323 327 331 331 326 330 322 316 306 290 269 272 273 278 279 268 264 262 265 263 255 221 202 262 274 276 275 272 264 252 248 245
357 351 347 348 349 346 346 339 333 324 312 309 309 311 315 319 320 320 309 301 296 281 275 277 284 278 272 270 272 272 262 236 218 227 244 254 257 257 267 288 305 312 319
358 348 347 354 355 353 347 343 334 308 293 299 299 293 298 304 307 307 296 290 286 280 279 280 287 290 287 296 293 279 253 229 227 236 247 258 264 262 259 257 264 273 283
356 352 350 354 357 358 351 341 330 306 289 284 282 281 289 292 299 307 301 290 277 268 283 308 322 307 303 305 299 284 264 254 252 249 248 257 262 260 270 268 252 244 248
350 350 345 345 348 353 354 349 353 348 342 333 323 313 305 307 313 310 308 302 299 289 298 282 275 270 267 272 276 275 263 252 252 251 243 243 251 253 259 266 261 244 248
333 331 334 338 338 338 338 339 337 346 356 358 350 342 336 331 329 326 321 314 312 311 283 269 265 268 272 268 265 262 260 256 248 241 241 241 242 247 251 251 251 258 258
338 332 336 328 329 329 326 325 324 326 331 336 345 348 347 344 342 340 336 334 328 333 304 282 278 274 272 270 266 263 261 260 252 249 245 242 240 242 245 243 240 246 256
342 337 337 337 335 333 333 333 333 331 326 326 332 338 349 349 350 354 360 357 329 316 311 296 285 278 275 271 270 262 254 253 252 246 242 240 238 238 244 240 238 249 258
340 342 345 342 341 340 339 337 337 335 333 332 332 329 333 344 348 348 353 350 337 322 315 305 298 289 281 273 270 260 253 252 247 245 243 240 236 231 234 233 232 238 247
339 339 346 347 341 333 330 330 330 333 332 331 329 330 340 344 341 340 341 340 333 321 312 304 298 293 282 272 266 258 256 254 249 241 239 236 229 234 231 228 231 238 244
341 339 338 336 335 330 330 332 334 333 331 331 331 335 343 350 343 337 333 330 326 321 315 308 300 293 287 276 266 259 255 254 250 243 238 236 233 228 223 224 228 234 238
342 339 338 338 335 333 342 343 340 336 334 333 332 334 337 338 334 331 329 327 324 322 321 317 310 305 303 296 285 267 254 252 249 242 235 233 226 224 220 224 228 237 244
347 338 335 336 338 339 339 337 337 335 333 333 332 331 333 334 331 328 326 323 325 324 323 320 314 307 307 307 302 289 275 268 261 245 231 219 222 226 226 229 235 236 239
358 342 336 334 333 331 331 331 333 333 331 330 329 330 332 333 331 329 327 326 327 327 326 324 319 317 316 314 309 302 294 289 280 263 238 225 221 226 230 233 234 236 240
351 340 332 328 327 326 326 324 324 325 324 324 325 325 324 324 323 323 323 326 325 325 323 322 320 319 317 314 310 308 309 303 293 285 269 240 220 227 228 235 232 234 233
Height
1473 1474 1475 1476 1477 1479 1479 1480 1481 1481 1482 1482 1483 1484 1485 1486 1487 1488 1489 1490 1491 1492 1493 1494 1496 1498 1499 1501 1502 1503 1505 1506 1506 1506 1508 1509 1510 1510 1511 1511 1512 1512 1513
1472 1473 1474 1475 1475 1476 1477 1478 1478 1479 1479 1480 1480 1481 1482 1483 1484 1485 1486 1486 1487 1488 1489 1490 1492 1494 1495 1496 1498 1499 1500 1502 1503 1502 1503 1504 1505 1506 1506 1507 1507 1508 1508
1471 1472 1472 1473 1474 1474 1475 1475 1476 1476 1476 1477 1478 1478 1479 1480 1481 1482 1482 1483 1484 1484 1485 1487 1488 1490 1491 1492 1493 1495 1496 1497 1498 1499 1499 1500 1500 1501 1501 1502 1502 1503 1503
1470 1470 1471 1471 1472 1472 1473 1473 1473 1473 1474 1474 1475 1475 1476 1477 1478 1478 1479 1479 1480 1481 1482 1483 1484 1485 1487 1488 1489 1490 1492 1492 1493 1494 1494 1495 1496 1496 1497 1497 1497 1497 1498
1469 1469 1469 1470 1470 1470 1470 1471 1471 1471 1471 1472 1472 1473 1474 1474 1475 1475 1475 1476 1477 1478 1479 1480 1481 1482 1483 1484 1485 1486 1487 1488 1489 1489 1489 1490 1490 1491 1492 1492 1492 1492 1492
1467 1467 1468 1468 1468 1468 1468 1469 1469 1469 1469 1469 1470 1470 1471 1471 1472 1472 1473 1473 1473 1474 1475 1476 1477 1478 1479 1480 1481 1482 1483 1483 1484 1484 1485 1485 1485 1487 1487 1488 1488 1487 1487
1465 1466 1466 1466 1466 1466 1467 1467 1467 1467 1467 1467 1467 1468 1468 1468 1469 1469 1469 1470 1470 1470 1471 1472 1473 1474 1475 1476 1477 1478 1478 1479 1480 1481 1480 1480 1481 1482 1483 1483 1483 1482 1482
1464 1464 1464 1464 1465 1465 1465 1465 1465 1465 1465 1465 1465 1465 1465 1466 1466 1466 1466 1466 1467 1467 1467 1468 1468 1469 1470 1471 1472 1472 1473 1474 1475 1475 1476 1476 1477 1478 1478 1479 1478 1478 1478
1462 1462 1463 1463 1463 1463 1463 1463 1463 1462 1462 1462 1462 1463 1463 1463 1464 1464 1464 1463 1463 1463 1464 1464 1465 1465 1466 1467 1468 1468 1468 1469 1470 1471 1471 1471 1472 1473 1473 1474 1473 1473 1472
1461 1461 1461 1461 1461 1461 1461 1461 1460 1460 1460 1460 1460 1460 1460 1460 1461 1461 1461 1461 1460 1460 1461 1461 1462 1462 1463 1463 1464 1464 1464 1465 1465 1466 1466 1466 1467 1467 1468 1468 1468 1468 1467
1460 1460 1460 1460 1460 1459 1459 1458 1458 1458 1458 1457 1457 1457 1458 1458 1458 1458 1458 1458 1458 1458 1457 1458 1458 1459 1459 1460 1460 1460 1460 1461 1461 1461 1461 1461 1461 1462 1462 1463 1463 1463 1463
1459 1459 1458 1458 1458 1457 1457 1456 1456 1456 1455 1455 1455 1455 1455 1455 1455 1455 1455 1455 1456 1455 1455 1455 1455 1455 1455 1456 1456 1456 1457 1457 1457 1456 1456 1456 1456 1457 1458 1458 1458 1458 1459
1458 1457 1457 1456 1456 1455 1455 1454 1453 1453 1453 1452 1452 1452 1451 1452 1452 1452 1452 1452 1452 1452 1452 1451 1452 1452 1452 1452 1452 1452 1452 1452 1452 1452 1452 1452 1452 1453 1453 1453 1453 1453 1454
1456 1455 1455 1454 1453 1453 1452 1452 1451 1451 1450 1450 1450 1449 1449 1448 1448 1448 1448 1449 1448 1448 1448 1448 1448 1448 1448 1448 1448 1448 1448 1448 1448 1448 1447 1448 1448 1448 1448 1448 1448 1448 1448
1454 1453 1452 1452 1451 1450 1450 1450 1449 1449 1448 1448 1447 1447 1446 1445 1445 1446 1445 1445 1445 1444 1444 1444 1444 1444 1444 1444 1444 1443 1443 1443 1443 1443 1443 1443 1443 1443 1443 1443 1443 1443 1442
1452 1451 1450 1450 1449 1448 1447 1447 1446 1446 1446 1445 1445 1444 1443 1443 1443 1442 1442 1441 1441 1441 1441 1440 1440 1440 1440 1440 1439 1439 1439 1439 1439 1439 1439 1439 1438 1438 1438 1438 1438 1437 1437
1451 1450 1449 1448 1447 1447 1446 1445 1443 1443 1443 1442 1442 1441 1440 1440 1439 1438 1438 1437 1437 1437 1437 1436 1436 1436 1436 1436 1435 1435 1435 1435 1435 1435 1434 1434 1434 1434 1433 1433 1433 1432 1432
1449 1449 1448 1447 1446 1445 1444 1443 1442 1441 1440 1439 1439 1438 1437 1436 1436 1435 1434 1434 1433 1433 1433 1433 1432 1432 1432 1432 1432 1431 1431 1431 1430 1430 1430 1430 1429 1429 1429 1428 1428 1427 1427
1448 1447 1446 1446 1445 1444 1443 1442 1441 1439 1438 1437 1436 1435 1434 1433 1432 1432 1431 1431 1430 1429 1429 1429 1429 1428 1428 1428 1427 1427 1427 1426 1426 1426 1425 1425 1425 1424 1424 1424 1423 1423 1423
1446 1446 1445 1444 1443 1442 1441 1440 1439 1438 1436 1435 1434 1432 1431 1430 1429 1428 1428 1427 1427 1426 1426 1425 1425 1424 1424 1424 1423 1422 1422 1422 1421 1421 1421 1421 1420 1420 1419 1419 1419 1419 1418
1444 1444 1443 1442 1441 1440 1439 1438 1437 1436 1435 1433 1432 1430 1429 1428 1427 1426 1425 1424 1424 1423 1423 1422 1421 1420 1420 1419 1419 1418 1418 1417 1417 1417 1416 1416 1416 1415 1415 1415 1415 1415 1415
1443 1442 1441 1440 1439 1438 1437 1436 1435 1434 1433 1431 1430 1428 1427 1426 1425 1424 1423 1422 1421 1420 1419 1419 1418 1417 1416 1415 1415 1414 1413 1413 1413 1412 1412 1412 1411 1411 1411 1411 1411 1411 1411
1442 1441 1440 1439 1438 1437 1436 1435 1434 1432 1431 1429 1428 1426 1425 1424 1423 1422 1421 1419 1418 1417 1416 1415 1414 1413 1412 1411 1411 1410 1409 1409 1408 1408 1408 1407 1407 1407 1408 1407 1407 1407 1407
1440 1439 1438 1437 1436 1435 1434 1433 1432 1431 1429 1428 1426 1425 1424 1422 1421 1420 1419 1417 1416 1415 1413 1412 1411 1410 1409 1408 1407 1406 1405 1405 1404 1404 1404 1404 1404 1404 1404 1404 1404 1404 1404
1438 1438 1437 1436 1435 1434 1432 1431 1430 1429 1428 1426 1425 1424 1422 1421 1419 1418 1417 1415 1414 1412 1411 1409 1408 1407 1406 1404 1403 1402 1402 1401 1401 1401 1400 1400 1400 1400 1400 1400 1400 1400 1400
1437 1436 1435 1434 1433 1432 1431 1429 1428 1427 1426 1425 1423 1422 1420 1419 1417 1416 1414 1413 1411 1410 1408 1407 1405 1404 1403 1401 1400 1399 1399 1398 1398 1397 1397 1397 1397 1396 1397 1397 1396 1396 1396